Showing default

COSMOS 2586, 63289

Orbit data source: Space-Track

COSMOS 2586, 63289 is a payload satellite owned by VVKO VKS (CIS) in LEO that was launched on Sun, 16 Mar 2025 UTC via an ANGARA-1.2 launch vehicle from the Plesetsk Missile And Space Complex (PKMTR). Payload-class satellites include a variety of spacecraft equipped with specific instruments for various scientific and technological missions. These include communications satellites like Starlink; space stations such as the ISS; scientific satellites like the Hubble; Earth observation satellites from companies like Planet Labs, Umbra, and HawkEye 360; GPS; miniature CubeSats for education and research; and military/defense satellites.

Loading next visibility...
Identifier
63289, 2025-054B
Orbit
LEO
Last TLE update
7 hours ago
Origin
Manufacturer
Resehetnev ISS
Mission
Operational Defense Communications
Bus & Motor
STRELA-3M, Unknown motor
Mass
280 kg wet, 280 kg dry
Launch date (UTC)
2025-03-16 (4 months ago)
Launch vehicle
ANGARA-1.2
Launch site
Plesetsk Missile And Space Complex (PKMTR)
Object type
Payload
Rocket body
Debris
Shape & HBR
Cyl + 1 Ant, 7 m
Radar Cross Section
1.583 m², Large (>1 m²)

Expand to show TLE details & history

TLE from 7 hours ago
0 COSMOS 2586
1 63289U 25054B   25182.14919331  .00000037  00000-0  19323-3 0  9994
2 63289  82.4934 297.0539 0021501  71.9707 288.3714 12.42897959 13244
Epoch: 2025-07-01T03:34Z
TLE epoch observation values (Epoch: 2025-07-01T03:34:50.301Z)
Latitude
0.00003°
Longitude
-36.10448°
Altitude
1,491.739 km
Speed
7.121 km/s
True Right ascension
19h 48m 12s
True Declination
0° 00' 00"
Sunlit
Object was in full shadow at epoch
Visualization orbit readout
Latitude
-55.83975°
Longitude
154.85418°
Altitude
1,532.28 km
Speed
7.092 km/s
Apparent Right ascension
09h 27m 06s
Apparent Declination
-49° 19' 13"
Sunlit
Object is in daylight
Visualization observer readout
Local Sidereal Time
22:17:02
Azimuth
140.887° SSE
Elevation
-77.095°
Doppler factor
1
Orbital elements
Apogee altitude
1,508.615 km
Perigee altitude
1,474.773 km
Semi-major axis
7,869.831 km
Eccentricity
0.00215
Inclination
82.4934°
RAAN
297.0539°
Arg. of periapsis
71.9707°
True anomaly
Unknown
Mean anomaly
288.3714°
Eccentric anomaly
Unknown
Mean motion
3.10882 °/min
Orbital period
115.8 mins
BSTAR
0.00019323
Loading maneuver chart data...
Loading SW <> Apogee altitude chart data...
Loading historical data...
Loading historical data...
Loading historical data...
Loading historical data...
Loading historical data...
Loading historical data...
Loading historical data...
Other satellites on launch #54 in the year 2025 (2025-03-16 UTC)

COSMOS 2586 Visibility forecast

Observer location: undefined°, undefined°

Span
Click to sort rows by Start time (UTC) header in descending order
Start Az.
Max El. time (UTC)
Max El. Az.
Max El.
End time (UTC)
End Az.
11 mins2025-07-01 17:43:33.479Z22.256° NNE2025-07-01 17:49:33.479Z68.381° E18.829°2025-07-01 17:54:33.479Z105.593° ESE
16 mins2025-07-01 19:39:33.479Z350.706° N2025-07-01 19:46:33.479Z314.891° NW44.655°2025-07-01 19:55:33.479Z177.935° S
7 mins2025-07-01 21:39:33.479Z304.808° NW2025-07-01 21:42:33.479Z282.269° WNW14.777°2025-07-01 21:46:33.479Z253.731° W
11 mins2025-07-02 06:45:33.479Z121.734° SE2025-07-02 06:50:33.479Z82.06° E21.141°2025-07-02 06:56:33.479Z35.608° NE
15 mins2025-07-02 08:39:33.479Z196.825° SSW2025-07-02 08:46:33.479Z275.722° WNW43.579°2025-07-02 08:54:33.479Z3.226° NNE
|